Gaylord, MI

11:37 AM EST on January 19, 2017 (GMT -0500)
Otsego County

Weather History for KGLR - December, 2013

Change the Weather History Date:

Tuesday, December 17, 2013

  Actual Average Record
Temperature  
Mean Temperature 16 °F -  
Max Temperature 21 °F 28 °F 43 °F (2006)
Min Temperature 10 °F 15 °F -9 °F (1981)
Degree Days  
Heating Degree Days 50    
Moisture  
Dew Point 16 °F    
Average Humidity 90    
Maximum Humidity 96    
Minimum Humidity 84    
Precipitation  
Precipitation 0.01 in - - ()
Sea Level Pressure  
Sea Level Pressure 29.82 in    
Wind  
Wind Speed 9 mph (SW)    
Max Wind Speed 13 mph    
Max Gust Speed -    
Visibility 4 miles    
Events Fog , Snow    
Averages and records for this station are not official NWS values.
T = Trace of Precipitation, MM = Missing Value Source: NWS Daily Summary

Daily Weather History Graph

Daily Weather History Graph

Search for Another Location

Airport or City:

Trip Planner

Search our weather history database for the weather conditions in past years. The results will help you decide how hot, cold, wet, or windy it might be!

Date:

Astronomy

Dec. 17, 2013 Rise Set
Actual Time 8:11 AM EST 4:58 PM EST
Civil Twilight 7:37 AM EST 5:32 PM EST
Nautical Twilight 7:00 AM EST 6:09 PM EST
Astronomical Twilight 6:24 AM EST 6:45 PM EST
Moon 5:40 PM EST (12/17) 8:04 AM EST (12/17)
Length of Visible Light 9h 54m
Length of Day
8h 46m
Full, 100% of the Moon is Illuminated
Dec 17
Full
Dec 25
Last Quarter
Jan 1
New
Jan 7
First Quarter
Jan 15
Full

Hourly Weather History & Observations

Time (EST) Temp. Windchill Dew Point Humidity Pressure Visibility Wind Dir Wind Speed Gust Speed Precip Events Conditions
1:53 AM 10.9 °F -4.1 °F 7.0 °F 84% 29.92 in 2.5 mi South 12.7 mph - 0.00 in Snow Light Snow
2:31 AM 10.9 °F -2.6 °F 8.1 °F 88% 29.83 in 2.0 mi South 10.4 mph - 0.00 in Snow Light Snow
2:53 AM 10.9 °F -3.4 °F 8.1 °F 88% 29.91 in 3.0 mi South 11.5 mph - 0.00 in Snow Light Snow
3:43 AM 10.9 °F -1.8 °F 8.1 °F 88% 29.81 in 4.0 mi South 9.2 mph - 0.00 in Snow Light Snow
3:53 AM 10.9 °F -0.8 °F 8.1 °F 88% 29.89 in 5.0 mi South 8.1 mph - 0.00 in Snow Light Snow
4:53 AM 12.0 °F -0.4 °F 9.0 °F 88% 29.87 in 7.0 mi SSW 9.2 mph - 0.00 in Snow Light Snow
5:06 AM 12.0 °F -0.4 °F 9.0 °F 88% 29.78 in 8.0 mi SSW 9.2 mph - 0.00 in Snow Light Snow
5:38 AM 12.0 °F 0.5 °F 9.0 °F 88% 29.78 in 4.0 mi South 8.1 mph - 0.00 in Snow Light Snow
5:53 AM 12.0 °F 0.5 °F 9.0 °F 88% 29.87 in 5.0 mi SSW 8.1 mph - 0.00 in Snow Light Snow
6:21 AM 12.9 °F 1.6 °F 10.0 °F 88% 29.77 in 10.0 mi SSW 8.1 mph - 0.00 in   Overcast
6:53 AM 12.9 °F 1.6 °F 10.0 °F 88% 29.86 in 10.0 mi SSW 8.1 mph - 0.00 in   Overcast
7:53 AM 14.0 °F 5.1 °F 12.9 °F 95% 29.85 in 7.0 mi SSW 5.8 mph - N/A   Overcast
8:29 AM 15.1 °F 5.2 °F 14.0 °F 95% 29.76 in 7.0 mi SW 6.9 mph - N/A   Overcast
8:53 AM 16.0 °F 6.3 °F 14.0 °F 92% 29.85 in 5.0 mi SW 6.9 mph - N/A   Overcast
9:41 AM 17.1 °F 8.7 °F 15.1 °F 92% 29.77 in 4.0 mi SW 5.8 mph - N/A   Overcast
9:53 AM 17.1 °F 7.6 °F 15.1 °F 92% 29.85 in 4.0 mi SW 6.9 mph - N/A   Overcast
10:53 AM 18.0 °F 7.7 °F 16.0 °F 92% 29.85 in 3.0 mi SW 8.1 mph - N/A   Overcast
11:19 AM 18.0 °F 8.7 °F 17.1 °F 96% 29.77 in 2.5 mi SSW 6.9 mph - N/A   Overcast
11:28 AM 18.0 °F 7.7 °F 17.1 °F 96% 29.76 in 1.2 mi SSW 8.1 mph - N/A   Overcast
11:39 AM 18.0 °F 9.8 °F 17.1 °F 96% 29.76 in 0.5 mi SSW 5.8 mph - N/A Fog Light Freezing Fog
11:53 AM 18.0 °F 9.8 °F 17.1 °F 96% 29.83 in 1.0 mi South 5.8 mph - N/A   Overcast
12:01 PM 18.0 °F 8.7 °F 17.1 °F 96% 29.75 in 0.8 mi SSW 6.9 mph - N/A   Overcast
12:11 PM 18.0 °F 8.7 °F 17.1 °F 96% 29.74 in 1.0 mi South 6.9 mph - N/A   Overcast
12:39 PM 18.0 °F 9.8 °F 17.1 °F 96% 29.74 in 2.5 mi South 5.8 mph - N/A   Overcast
12:48 PM 19.4 °F 11.5 °F 17.6 °F 93% 29.73 in 3.0 mi South 5.8 mph - N/A   Overcast
12:53 PM 19.0 °F 12.3 °F 17.1 °F 92% 29.81 in 3.0 mi SSW 4.6 mph - N/A   Overcast
1:13 PM 19.0 °F 10.0 °F 17.1 °F 92% 29.73 in 6.0 mi SSW 6.9 mph - N/A   Overcast
1:53 PM 19.9 °F 10.1 °F 17.1 °F 89% 29.80 in 8.0 mi WSW 8.1 mph - N/A   Overcast
2:01 PM 19.9 °F 11.1 °F 17.1 °F 89% 29.73 in 10.0 mi WSW 6.9 mph - N/A   Overcast
2:53 PM 21.0 °F 12.4 °F 17.1 °F 85% 29.81 in 8.0 mi WSW 6.9 mph - N/A   Overcast
3:53 PM 21.0 °F 11.4 °F 17.1 °F 85% 29.83 in 6.0 mi WSW 8.1 mph - N/A   Overcast
4:53 PM 21.0 °F 12.4 °F 18.0 °F 88% 29.83 in 7.0 mi SW 6.9 mph - 0.00 in   Overcast
5:53 PM 21.9 °F 11.7 °F 19.0 °F 89% 29.85 in 6.0 mi West 9.2 mph - 0.00 in Snow Light Snow
6:29 PM 21.0 °F 10.6 °F 18.0 °F 88% 29.78 in 6.0 mi WSW 9.2 mph - 0.00 in Snow Light Snow
6:46 PM 21.0 °F 10.6 °F 18.0 °F 88% 29.79 in 7.0 mi WSW 9.2 mph - 0.00 in   Overcast
6:53 PM 21.0 °F 10.6 °F 19.0 °F 92% 29.86 in 7.0 mi West 9.2 mph - 0.00 in   Overcast
7:01 PM 21.9 °F 12.5 °F 19.0 °F 89% 29.79 in 8.0 mi West 8.1 mph - 0.00 in Snow Light Snow
7:23 PM 21.9 °F 11.7 °F 19.0 °F 89% 29.80 in 6.0 mi WSW 9.2 mph - 0.00 in Snow Light Snow
7:53 PM 21.9 °F 12.5 °F 19.0 °F 89% 29.87 in 6.0 mi West 8.1 mph - 0.00 in Snow Light Snow
8:53 PM 21.9 °F 12.5 °F 19.9 °F 92% 29.88 in 4.0 mi West 8.1 mph - 0.00 in Snow Light Snow
9:12 PM 21.9 °F 11.7 °F 19.0 °F 89% 29.81 in 6.0 mi WSW 9.2 mph - 0.00 in Snow Light Snow
9:21 PM 21.9 °F 11.7 °F 19.0 °F 89% 29.81 in 4.0 mi WSW 9.2 mph - 0.00 in Snow Light Snow
9:27 PM 21.9 °F 11.7 °F 19.0 °F 89% 29.81 in 2.0 mi WSW 9.2 mph - 0.00 in Snow Light Snow
9:34 PM 21.9 °F 12.5 °F 19.0 °F 89% 29.82 in 1.5 mi WSW 8.1 mph - 0.00 in Snow Light Snow
9:45 PM 21.9 °F 12.5 °F 19.0 °F 89% 29.81 in 2.0 mi SW 8.1 mph - 0.00 in Snow Light Snow
9:53 PM 21.9 °F 12.5 °F 19.0 °F 89% 29.88 in 1.5 mi SW 8.1 mph - 0.00 in Snow Light Snow
10:04 PM 21.9 °F 12.5 °F 19.0 °F 89% 29.82 in 3.0 mi SW 8.1 mph - 0.00 in Snow Light Snow
10:16 PM 21.0 °F 12.4 °F 19.0 °F 92% 29.82 in 5.0 mi SW 6.9 mph - 0.00 in Snow Light Snow
10:32 PM 21.0 °F 12.4 °F 19.0 °F 92% 29.82 in 1.8 mi WSW 6.9 mph - 0.00 in Snow Light Snow
10:53 PM 21.0 °F 11.4 °F 19.0 °F 92% 29.89 in 3.0 mi SW 8.1 mph - 0.00 in Snow Light Snow
11:25 PM 21.0 °F 9.9 °F 18.0 °F 88% 29.82 in 5.0 mi SW 10.4 mph - 0.00 in Snow Light Snow
11:45 PM 21.0 °F 12.4 °F 19.0 °F 92% 29.82 in 2.0 mi WSW 6.9 mph - 0.00 in Snow Light Snow
11:53 PM 21.0 °F 11.4 °F 19.0 °F 92% 29.90 in 0.8 mi WSW 8.1 mph - 0.01 in Snow Light Snow